Location: Newark
(48.6461°N, 4.3644°W)
Time: 02:01:38
(UTC+00:00)

A-11 Canister half - Pass Details

Date: 01 February 2020
Orbit: 1517 x 1683 km, 47.2° (Epoch: 25 February)

Event Time Altitude Azimuth Distance (km) Brightness Sun altitude
Rises 21:40:15 0° 222° (SW) 4,795 11.7 -43.2°
Reaches altitude 10° 21:43:31 10° 217° (SW) 3,789 11.1 -43.7°
Enters shadow 21:44:45 15° 215° (SW) 3,418 10.8 -43.8°
